Skip Page Navigation
NASA JPL Caltech
NASA Logo - Jet Propulsion Laboratory + View the NASA Portal
+ Center for Near-Earth Object Studies
JPL Home Earth Solar System Stars & Galaxies Technology
JPL Solar System Dynamics
BODIES ORBITS EPHEMERIDES TOOLS PHYSICAL DATA DISCOVERY FAQ SITE MAP
JPL Small-Body Database Browser
Search: [ help ]  
14563 (1998 AV5)
Classification: Main-belt Asteroid          SPK-ID: 2014563
Ephemeris | Orbit Diagram | Orbital Elements | Mission Design | Physical Parameters | Discovery Circumstances | Close-Approach Data ]

[ show orbit diagram ]
Orbital Elements at Epoch 2459200.5 (2020-Dec-17.0) TDB
Reference: JPL 31 (heliocentric ecliptic J2000)
 Element Value Uncertainty (1-sigma)   Units 
e .1890343397657326 2.688e-08  
a 2.25188081787291 6.5238e-09 au
q 1.826198014235187 5.8929e-08 au
i 4.768608374817072 3.6643e-06 deg
node 130.3912783171606 3.5749e-05 deg
peri 123.0187533250921 3.7224e-05 deg
M 192.3614901592036 1.1003e-05 deg
tp 2459775.261699183561
(2022-Jul-14.76169918)
3.8681e-05 TDB
period 1234.28806365903
3.38
5.3637e-06
1.469e-08
d
yr
n .2916661115013824 1.2675e-09 deg/d
Q 2.677563621510634 7.7571e-09 au
  Orbit Determination Parameters
   # obs. used (total)      1794  
   data-arc span      11430 days (31.29 yr)  
   first obs. used      1989-10-03  
   last obs. used      2021-01-18  
   planetary ephem.      DE431  
   SB-pert. ephem.      SB431-N16  
   condition code      0  
   norm. resid. RMS      .50867  
   source      ORB  
   producer      Otto Matic  
   solution date      2021-Feb-24 02:18:51  

Additional Information
 Earth MOID = .81525 au 
 Jupiter MOID = 2.3764 au 
 T_jup = 3.598 
[ show covariance matrix ]

Ephemeris | Orbit Diagram | Orbital Elements | Mission Design | Physical Parameters | Discovery Circumstances | Close-Approach Data ]

Physical Parameter Table
Parameter Symbol Value Units Sigma Reference Notes
absolute magnitude H 14.8   n/a MPO502280  

14563 (1998 AV5)          Discovered 1998-Jan-08 by ODAS at Caussols
Reference: 20000418/Numbers.arcLast Updated: 2004-04-19

[ show close-approach data ]
Alternate Designations
 1998 AV5 = 1989 TQ8 
Ephemeris | Orbit Diagram | Orbital Elements | Mission Design | Physical Parameters | Discovery Circumstances | Close-Approach Data ]
ABOUT SSD CREDITS/AWARDS PRIVACY/COPYRIGHT GLOSSARY LINKS
FirstGov 2021-Mar-01 02:32 UT
(server date/time)  
NASA Home Page
Site Manager:   Ryan S. Park
Webmaster  Alan B. Chamberlin